Location: Arbon
(43.0005°N, 0.7472°E)
Time: 19:19:04
(UTC+00:00)

Cosmos 1025 Rocket - Pass Details

Date: 07 August 2020
Orbit: 594 x 618 km, 82.5° (Epoch: 24 September)

Event Time Altitude Azimuth Distance (km) Brightness Sun altitude
Rises 01:31:19 0° 346° (NNW) 2,849 7.2 -27.3°
Reaches altitude 10° 01:33:34 10° 342° (NNW) 1,940 6.2 -27.1°
Enters shadow 01:36:10 33° 322° (NW) 1,008 4.3 -26.9°
